Location: B?ogocice
(50.2413°N, 20.2361°E)
Time: 02:57:45
(UTC+00:00)

ALOS - Pass Details

Date: 27 September 2024
Orbit: 670 x 673 km, 98.0° (Epoch: 04 October)

Event Time Altitude Azimuth Distance (km) Brightness Sun altitude
Rises 23:58:32 0° 31° (NNE) 3,028 6.5 -38.0°
Reaches altitude 10° 00:02:05 10° 60° (ENE) 2,107 5.3 -37.7°
Enters shadow 00:02:58 12° 71° (ENE) 1,984 5.1 -37.7°
